Flag Weather past 2 weeks in Münster, North Rhine-Westphalia, Germany

Now
45 °F

Clear.


Feels Like: 42 °F
Forecast: 39 / 51 °F
Wind: 5 mph from East

Location: Muenster / Osnabrueck

Current Time: Nov 23, 2014 at 7:11:47 AM

Latest Report: Nov 23, 2014 at 6:20 AM


Visibility: 10 mi

Pressure: 30.09 "Hg

Humidity: 93%

Dew point: 43 °F

Location of MünsterLocation

Historic Weather in Münster — Graph

°F

Münster temperature yesterday

Maximum temperature yesterday: 52 °F (at 2:50 PM)
Minimum temperature yesterday: 39 °F (at 1:20 AM)
Average temperature yesterday: 44 °F

Past Weeks' High & Low Weather Summary

 TemperatureHumidityPressure
High57 °F (Nov 8, 1:50 PM)100% (Nov 10, 3:20 AM)30.36 "Hg (Nov 10, 3:20 AM)
Low37 °F (Nov 21, 12:20 AM)59% (Nov 8, 2:20 PM)29.47 "Hg (Nov 16, 12:50 PM)
Average47 °F90%29.86 "Hg
* Reported Nov 8 5:20 AM — Nov 23 5:50 AM, Münster, Weather by CustomWeather, © 2014

Note: Actual official high and low records may vary slightly from our data, if they occured in-between our weather recording intervals... More about our weather records

Advertising

Münster weather history for previous 24 hours

 ConditionsComfort  
Time TempWeatherWind HumidityBarometerVisibility
5:50 AM
Nov 23
45 °FClear.3 mph93%30.09 "Hg10 mi
5:20 AM45 °FClear.3 mph93%30.09 "Hg10 mi
4:50 AM45 °FClear.2 mph93%30.09 "Hg10 mi
4:20 AM45 °FClear.3 mph93%30.07 "Hg10 mi
3:50 AM45 °FClear.3 mph93%30.09 "Hg10 mi
3:20 AM45 °FClear.3 mph93%30.09 "Hg10 mi
2:50 AM45 °FClear.5 mph93%30.09 "Hg10 mi
2:20 AM45 °FClear.5 mph93%30.09 "Hg10 mi
1:50 AM45 °FClear.5 mph93%30.09 "Hg10 mi
1:20 AM45 °FClear.3 mph93%30.09 "Hg10 mi
12:50 AM45 °FClear.3 mph93%30.09 "Hg10 mi
12:20 AM45 °FClear.5 mph93%30.09 "Hg10 mi
11:50 PM
Nov 22
45 °FClear.6 mph93%30.07 "Hg10 mi
11:20 PM45 °FClear.3 mph93%30.09 "Hg10 mi
10:50 PM45 °FClear.5 mph93%30.09 "Hg10 mi
10:20 PM45 °FClear.5 mph93%30.07 "Hg10 mi
9:50 PM45 °FClear.3 mph87%30.07 "Hg10 mi
9:20 PM45 °FClear.5 mph93%30.07 "Hg10 mi
8:50 PM45 °FClear.5 mph87%30.07 "Hg10 mi
8:20 PM45 °FClear.6 mph93%30.07 "Hg10 mi
7:50 PM46 °FClear.5 mph87%30.07 "Hg10 mi
7:20 PM46 °FClear.5 mph87%30.07 "Hg10 mi
6:50 PM46 °FClear.5 mph87%30.07 "Hg10 mi
6:20 PM46 °FClear.5 mph87%30.07 "Hg10 mi
5:50 PM45 °FClear.2 mph87%30.07 "Hg10 mi
5:20 PM46 °FClear.3 mph87%30.07 "Hg10 mi
4:50 PM46 °FClear.5 mph87%30.07 "Hg10 mi
4:20 PM48 °FSunny.3 mph82%30.07 "Hg10 mi
3:50 PM50 °FSunny.5 mph76%30.07 "Hg10 mi
3:20 PM50 °FSunny.5 mph76%30.07 "Hg10 mi
2:50 PM52 °FSunny.6 mph72%30.07 "Hg10 mi
2:20 PM50 °FSunny.3 mph76%30.07 "Hg10 mi
1:50 PM50 °FSunny.5 mph71%30.07 "Hg10 mi
1:20 PM48 °FSunny.5 mph76%30.07 "Hg10 mi
12:50 PM48 °FSunny.6 mph76%30.07 "Hg10 mi
12:20 PM48 °FSunny.3 mph76%30.09 "Hg10 mi
11:50 AM46 °FSunny.7 mph76%30.07 "Hg10 mi
11:20 AM45 °FSunny.5 mph81%30.09 "Hg10 mi
10:50 AM45 °FSunny.5 mph81%30.09 "Hg10 mi
10:20 AM43 °FSunny.6 mph87%30.09 "Hg10 mi
9:50 AM43 °FSunny.5 mph81%30.09 "Hg10 mi
9:20 AM41 °FSunny.6 mph87%30.09 "Hg10 mi
8:50 AM41 °FSunny.5 mph87%30.09 "Hg10 mi
8:20 AM39 °FSunny.5 mph87%30.09 "Hg10 mi
7:50 AM39 °FClear.5 mph87%30.09 "Hg10 mi
7:20 AM39 °FClear.6 mph87%30.09 "Hg10 mi
Weather by CustomWeather, © 2014

See weather overviewHow to use our weather pages